When you browse on this site, cookies collect data to enhance your experience and personalize the content and advertising you see.
Visit our Privacy Policy to learn more. By continuing to use the site, you agree to this use of cookies and data.
  • In Hungary
  • List of Countries
  • For 7 days
  • Water Temperature
  • Satellite Maps
  • Weather Map
  • News
  • Weather Widgets
  • user-avatar
    Login

    Hourly Weather Ilorin

    Today, 19 January, Saturday

    Time Temperature Precipitation Wind Pressure Humidity
    00:00 +30°C° 0 mm 4 mps 733 mmHg 59%
    01:00 +29°C° 0 mm 4 mps 733 mmHg 64%
    02:00 +28°C° 0 mm 4 mps 732 mmHg 68%
    03:00 +28°C° 0 mm 3 mps 732 mmHg 72%
    04:00 +28°C° 0 mm 3 mps 733 mmHg 75%
    05:00 +27°C° 0 mm 3 mps 733 mmHg 77%
    06:00 +27°C° 0 mm 3 mps 733 mmHg 80%
    07:00 +28°C° 0 mm 3 mps 734 mmHg 74%
    08:00 +30°C° 0 mm 3 mps 734 mmHg 68%
    09:00 +31°C° 0 mm 3 mps 734 mmHg 62%
    10:00 +34°C° 0 mm 2 mps 734 mmHg 50%
    11:00 +37°C° 0 mm 2 mps 734 mmHg 39%
    12:00 +39°C° 0 mm 1 mps 733 mmHg 27%
    13:00 +40°C° 0 mm 1 mps 733 mmHg 25%
    14:00 +40°C° 0 mm 1 mps 732 mmHg 22%
    15:00 +41°C° 0 mm 1 mps 731 mmHg 20%
    16:00 +40°C° 0 mm 1 mps 731 mmHg 21%
    17:00 +39°C° 0 mm 1 mps 731 mmHg 22%
    18:00 +37°C° 0 mm 1 mps 731 mmHg 24%
    19:00 +37°C° 0 mm 2 mps 732 mmHg 27%
    20:00 +36°C° 0 mm 2 mps 733 mmHg 30%
    21:00 +35°C° 0 mm 3 mps 733 mmHg 34%
    22:00 +33°C° 0 mm 3 mps 733 mmHg 46%
    23:00 +32°C° 0 mm 4 mps 733 mmHg 59%

    Tomorrow, 20 January, Sunday

    Time Temperature Precipitation Wind Pressure Humidity
    00:00 +29°C° 0 mm 4 mps 733 mmHg 72%
    01:00 +29°C° 0 mm 4 mps 733 mmHg 72%
    02:00 +29°C° 0 mm 4 mps 732 mmHg 73%
    03:00 +28°C° 0 mm 4 mps 732 mmHg 74%
    04:00 +28°C° 0 mm 4 mps 732 mmHg 75%
    05:00 +28°C° 0 mm 4 mps 733 mmHg 77%
    06:00 +28°C° 0 mm 4 mps 733 mmHg 78%
    07:00 +29°C° 0.1 mm 4 mps 734 mmHg 70%
    08:00 +30°C° 0.1 mm 4 mps 734 mmHg 62%
    09:00 +33°C° 0.1 mm 4 mps 735 mmHg 54%
    10:00 +35°C° 0 mm 3 mps 734 mmHg 47%
    11:00 +36°C° 0 mm 3 mps 734 mmHg 39%
    12:00 +38°C° 0 mm 3 mps 734 mmHg 32%
    13:00 +38°C° 0 mm 2 mps 733 mmHg 32%
    14:00 +38°C° 0 mm 2 mps 732 mmHg 32%
    15:00 +38°C° 0 mm 2 mps 731 mmHg 32%
    16:00 +37°C° 0 mm 2 mps 731 mmHg 33%
    17:00 +37°C° 0 mm 2 mps 731 mmHg 34%
    18:00 +36°C° 0 mm 2 mps 732 mmHg 35%
    19:00 +35°C° 0 mm 2 mps 732 mmHg 37%
    20:00 +35°C° 0 mm 2 mps 733 mmHg 40%
    21:00 +34°C° 0 mm 2 mps 733 mmHg 42%
    22:00 +32°C° 0 mm 2 mps 733 mmHg 48%
    23:00 +31°C° 0 mm 3 mps 733 mmHg 53%

    Day after tomorrow, 21 January, Monday

    Time Temperature Precipitation Wind Pressure Humidity
    00:00 +31°C° 0 mm 3 mps 733 mmHg 59%
    01:00 +30°C° 0 mm 3 mps 732 mmHg 64%
    02:00 +29°C° 0 mm 3 mps 732 mmHg 69%
    03:00 +29°C° 0 mm 3 mps 732 mmHg 74%
    04:00 +28°C° 0.1 mm 3 mps 732 mmHg 75%
    05:00 +28°C° 0.1 mm 2 mps 732 mmHg 76%
    06:00 +28°C° 0.1 mm 2 mps 733 mmHg 78%
    07:00 +29°C° 0 mm 2 mps 733 mmHg 69%
    08:00 +31°C° 0 mm 2 mps 734 mmHg 61%
    09:00 +34°C° 0 mm 3 mps 735 mmHg 53%
    10:00 +35°C° 0 mm 3 mps 734 mmHg 42%
    11:00 +37°C° 0 mm 2 mps 733 mmHg 32%
    12:00 +39°C° 0 mm 2 mps 733 mmHg 21%
    13:00 +40°C° 0 mm 2 mps 732 mmHg 19%
    14:00 +40°C° 0 mm 2 mps 731 mmHg 16%
    15:00 +41°C° 0 mm 1 mps 730 mmHg 14%
    16:00 +40°C° 0 mm 1 mps 731 mmHg 15%
    17:00 +37°C° 0 mm 1 mps 731 mmHg 16%
    18:00 +36°C° 0 mm 1 mps 731 mmHg 17%
    19:00 +35°C° 0 mm 1 mps 732 mmHg 23%
    20:00 +34°C° 0 mm 1 mps 732 mmHg 28%
    21:00 +34°C° 0 mm 2 mps 733 mmHg 34%
    22:00 +32°C° 0 mm 2 mps 733 mmHg 46%
    23:00 +31°C° 0 mm 3 mps 732 mmHg 58%

    22 January, Tuesday

    Time Temperature Precipitation Wind Pressure Humidity
    00:00 +30°C° 0 mm 4 mps 732 mmHg 70%
    01:00 +29°C° 0 mm 3 mps 732 mmHg 74%
    02:00 +28°C° 0 mm 3 mps 731 mmHg 78%
    03:00 +28°C° 0 mm 3 mps 731 mmHg 82%
    04:00 +28°C° 0 mm 2 mps 732 mmHg 82%
    05:00 +27°C° 0 mm 2 mps 732 mmHg 82%
    06:00 +27°C° 0 mm 2 mps 732 mmHg 82%
    07:00 +29°C° 0 mm 2 mps 733 mmHg 75%
    08:00 +30°C° 0 mm 2 mps 734 mmHg 67%
    09:00 +33°C° 0 mm 3 mps 734 mmHg 60%
    10:00 +35°C° 0 mm 2 mps 734 mmHg 48%
    11:00 +37°C° 0 mm 2 mps 733 mmHg 36%
    12:00 +39°C° 0 mm 1 mps 733 mmHg 24%
    13:00 +40°C° 0 mm 2 mps 732 mmHg 21%
    14:00 +40°C° 0 mm 2 mps 731 mmHg 18%
    15:00 +40°C° 0 mm 2 mps 730 mmHg 16%
    16:00 +39°C° 0 mm 2 mps 730 mmHg 15%
    17:00 +37°C° 0 mm 1 mps 730 mmHg 14%
    18:00 +36°C° 0 mm 1 mps 730 mmHg 14%
    19:00 +36°C° 0 mm 1 mps 731 mmHg 13%
    20:00 +35°C° 0 mm 1 mps 731 mmHg 12%
    21:00 +34°C° 0 mm 1 mps 732 mmHg 11%
    22:00 +34°C° 0 mm 2 mps 732 mmHg 20%
    23:00 +32°C° 0 mm 2 mps 732 mmHg 29%

    23 January, Wednesday

    Time Temperature Precipitation Wind Pressure Humidity
    00:00 +31°C° 0 mm 3 mps 732 mmHg 39%
    01:00 +30°C° 0 mm 3 mps 731 mmHg 53%
    02:00 +29°C° 0 mm 3 mps 731 mmHg 68%
    03:00 +28°C° 0 mm 3 mps 731 mmHg 83%
    04:00 +28°C° 0 mm 3 mps 731 mmHg 83%
    05:00 +27°C° 0 mm 3 mps 732 mmHg 82%
    06:00 +27°C° 0 mm 2 mps 732 mmHg 82%
    07:00 +28°C° 0 mm 2 mps 733 mmHg 75%
    08:00 +30°C° 0 mm 2 mps 734 mmHg 69%
    09:00 +31°C° 0 mm 3 mps 734 mmHg 62%
    10:00 +34°C° 0 mm 2 mps 734 mmHg 51%
    11:00 +36°C° 0 mm 2 mps 733 mmHg 40%
    12:00 +37°C° 0 mm 1 mps 732 mmHg 29%
    13:00 +39°C° 0 mm 1 mps 732 mmHg 26%
    14:00 +39°C° 0 mm 1 mps 731 mmHg 24%
    15:00 +40°C° 0 mm 1 mps 730 mmHg 21%
    16:00 +39°C° 0 mm 1 mps 730 mmHg 22%
    17:00 +37°C° 0 mm 1 mps 730 mmHg 23%
    18:00 +36°C° 0 mm 1 mps 731 mmHg 24%
    19:00 +35°C° 0 mm 1 mps 731 mmHg 25%
    20:00 +34°C° 0 mm 1 mps 732 mmHg 27%
    21:00 +34°C° 0 mm 1 mps 732 mmHg 28%
    22:00 +32°C° 0 mm 2 mps 732 mmHg 42%
    23:00 +31°C° 0 mm 3 mps 732 mmHg 57%

    24 January, Thursday

    Time Temperature Precipitation Wind Pressure Humidity
    00:00 +29°C° 0 mm 4 mps 731 mmHg 71%
    01:00 +29°C° 0 mm 4 mps 731 mmHg 74%
    02:00 +28°C° 0 mm 4 mps 731 mmHg 76%
    03:00 +28°C° 0 mm 4 mps 731 mmHg 79%
    04:00 +28°C° 0 mm 3 mps 731 mmHg 79%
    05:00 +27°C° 0 mm 2 mps 731 mmHg 78%
    06:00 +27°C° 0 mm 1 mps 732 mmHg 78%
    07:00 +29°C° 0 mm 2 mps 732 mmHg 72%
    08:00 +30°C° 0 mm 2 mps 733 mmHg 66%
    09:00 +31°C° 0 mm 2 mps 733 mmHg 60%
    10:00 +33°C° 0 mm 1 mps 732 mmHg 49%
    11:00 +36°C° 0 mm 1 mps 732 mmHg 39%
    12:00 +39°C° 0 mm 1 mps 731 mmHg 29%
    13:00 +39°C° 0 mm 1 mps 731 mmHg 26%
    14:00 +40°C° 0 mm 1 mps 730 mmHg 24%
    15:00 +40°C° 0 mm 1 mps 729 mmHg 22%
    16:00 +39°C° 0 mm 1 mps 729 mmHg 23%
    17:00 +39°C° 0 mm 1 mps 730 mmHg 24%
    18:00 +37°C° 0 mm 1 mps 730 mmHg 25%
    19:00 +36°C° 0 mm 1 mps 730 mmHg 26%
    20:00 +36°C° 0 mm 1 mps 731 mmHg 27%
    21:00 +35°C° 0 mm 1 mps 731 mmHg 28%
    22:00 +35°C° 0.3 mm 2 mps 731 mmHg 36%
    23:00 +34°C° 0.3 mm 2 mps 731 mmHg 44%
    Show more